Starlink 32598

operational
NORAD ID: 62046 Int'l Des: 2024-216 Owner: SPXS Country: US Constellation: starlink
LEOCIRCULAR

Über Starlink 32598

Beschreibung wird geladen...

Live-Position

3D-Globus wird geladen...

Nächste Überflüge

Höhenverlauf

Altitude vs Time

uPlot chart will show altitude changes over time

Zweizeiliger Elementsatz

1 62046U 24216Q 25305.15607888 .00034701 00000-0 12629-2 0 9998
2 62046 43.0020 261.7347 0000979 265.8940 94.1800 15.27625230 54226
Epoch: 1. Nov. 2025 • Age: 32 hours

Aktueller Status

Höhe 481.9 km
Geschwindigkeit 7.63 km/s
Subsatellitenpunkt 7.52°N, 153.91°W
Startdatum 21. Nov. 2024
Alter 0.9 years
Typ internet

Technische Details

Klassifizierung Payload
Masse 730.00 kg
Trockenmasse 700.00 kg
Gesamtmasse 730.00 kg
Länge 0.30 m
Durchmesser 4.10 m
Spannweite 29.00 m
Form Box + pan
Hersteller SPXS
Bus-Typ Starlink V2M
Phasenstatus In Orbit
Besitzer/Staat SPXS/US

Große Konstellationen

Loading constellations...